Powrót do katalogu

STARLINK-37155

AktywnyŁącznośćSSO
NORAD 68314·PAYLOAD·🇺🇸 United States

Wystrzelony Mar 20, 2026 z Vandenberg Space Force Base

Loading…

Następne Przeloty (najbliższe 24 godziny)

TLE

ŚwieżeSource: CelesTrak SupGP

Epoka: Sep 14, 2026, 21:12 UTC

1 68314C 26057W   26257.88381944  .00006923  00000+0  21486-3 0  2579
2 68314  97.2864  23.3702 0001098 102.4592 244.8767 15.33441604    18

Śledź STARLINK-37155 w czasie rzeczywistym z AllMySat

Download on the App Store